{"data":{"norad_id":66085,"epoch":"2026-09-20T21:48:51.734304Z","epoch_age_seconds":67661,"freshness":"FRESH","line1":"1 66085U 25235AD  26263.90893211  .00018552  00000+0  55871-3 0  9993","line2":"2 66085  53.1608  57.5566 0000755   8.5364 351.5651 15.34407133 52797","mean_motion":15.34407133,"eccentricity":7.55e-5,"inclination_deg":53.1608,"raan_deg":57.5566,"arg_perigee_deg":8.5364,"mean_anomaly_deg":351.5651,"bstar":0.00055871,"rev_number":5279,"period_min":93.847321811166,"perigee_km":462.16555767254,"apogee_km":463.19852134751,"semimajor_km":6840.81903951,"source":"CELESTRAK","updated_at":"2026-09-21T09:00:35.799732Z"}}